Погода в Домброва-Гурниче

Польша     50°19′23″N   19°11′20″E
темп.,
°C
ветер,
м/с
пор.,
м/с
влажн.,
%
обл.,
%
осадки,
мм/ч
давл.,
гПа
погр.,
м
26 февраля, пт
пт2601:00+7зюз38850 0.0 1029209
04:00+6зюз24910 0.0 102887
07:00+5юз23910 0.0 102740
10:00+10юз25700 0.0 1026232
13:00+14зюз485319 0.0 1025662
16:00+12сз476080 0.0 1024826
19:00+8с598588 0.5 1026622
22:00+5ссз4877100 1.8 1027739
27 февраля, сб
сб2701:00+5зсз3779100 1.8 1029759
04:00+4сз488589 0.1 1029621
07:00+3зсз498784 0.1 1029651
10:00+3сз4880100 0.0 1030805
13:00+4сз4877100 0.0 1032793
16:00+4сз4872100 0.0 1032969
19:00+4сз4874100 0.1 1034874
22:00+3сз3877100 0.1 1034535
28 февраля, вс
вс2801:00+3сз3782100 0.1 1035531
04:00+2сз3684100 0.1 1034613
07:00+2сз358198 0.1 1035530
10:00+3зсз237071 0.0 1035575
13:00+6сз235047 0.0 1035956
16:00+7сз23490 0.0 1033911
19:00+4зсз12600 0.0 103427
22:00+3з22690 0.0 103465
1 марта, пн
пн101:00+2зсз12790 0.0 103469
04:00+2сз138561 0.0 1034163
07:00+2с239571 0.0 1035197
10:00+3св238699 0.0 1036392
13:00+5ссв127299 0.0 1036533
16:00+6в237084 0.0 1036710
19:00+4вюв248377 0.0 1037275
22:00+2вюв238512 0.0 1038106
2 марта, вт
вт201:00+1вюв23876 0.0 1038123
04:00+1вюв22890 0.0 103769
07:000юв22870 0.0 103768
10:00+5ю12600 0.0 1037241
13:00+9ююз12470 0.0 1036436
16:00+9ю12470 0.0 1034314
19:00+6юв12600 0.0 103424
22:00+4ю22690 0.0 103435